Weather History for Rexburg, ID

Change the Weather History Date:

Thursday, November 15, 2012

  Actual Average Record
Temperature  
Mean Temperature 29 °F 31 °F  
Max Temperature 35 °F 41 °F 53 °F (2001)
Min Temperature 23 °F 21 °F 7 °F (2005)
Degree Days  
Heating Degree Days 36 34  
Month to date heating degree days 433 454  
Since 1 July heating degree days 1247 1441  
Cooling Degree Days 0 0  
Month to date cooling degree days 0 0  
Year to date cooling degree days 419 208  
Moisture  
Dew Point 29 °F    
Average Humidity 88    
Maximum Humidity 100    
Minimum Humidity 75    
Precipitation  
Precipitation 0.00 in 0.03 in 0.15 in (1981)
Month to date precipitation 0.41 0.58  
Year to date precipitation 8.45 11.57  
Sea Level Pressure  
Sea Level Pressure 30.35 in    
Wind  
Wind Speed 4 mph (NE)    
Max Wind Speed 8 mph    
Max Gust Speed 12 mph    
Visibility 6 miles    
Events      
T = Trace of Precipitation, MM = Missing Value Source: NWS Daily Summary

Daily Weather History Graph

Daily Weather History Graph

Search for Another Location

Airport:

Trip Planner

Search our weather history database for the weather conditions in past years. The results will help you decide how hot, cold, wet, or windy it might be!

Date:

Astronomy

Nov. 15, 2012 Rise Set
Actual Time 7:22 AM MST 5:00 PM MST
Civil Twilight 6:51 AM MST 5:32 PM MST
Nautical Twilight 6:16 AM MST 6:06 PM MST
Astronomical Twilight 5:42 AM MST 6:40 PM MST
Moon 9:24 AM MST (11/15) 6:54 PM MST (11/15)
Length of Visible Light 10h 40m
Length of Day
9h 38m
Waxing Crescent, 5% of the Moon is Illuminated
Nov 15
Waxing Crescent
Nov 20
First Quarter
Nov 28
Full
Dec 6
Last Quarter
Dec 13
New

Hourly Weather History & Observations

Time (MST) Temp. Windchill Dew Point Humidity Pressure Visibility Wind Dir Wind Speed Gust Speed Precip Events Conditions
12:07 AM 32.0 °F - 30.2 °F 93% 30.33 in 1.0 mi Calm Calm - N/A   Overcast
12:16 AM 32.0 °F - 30.2 °F 93% 30.33 in 1.0 mi Calm Calm - N/A   Overcast
12:23 AM 32.0 °F - 30.2 °F 93% 30.33 in 1.2 mi Calm Calm - N/A   Overcast
12:49 AM 32.0 °F - 32.0 °F 100% 30.33 in 2.0 mi Calm Calm - N/A   Overcast
12:53 AM 32.0 °F - 32.0 °F 100% 30.40 in 2.0 mi Calm Calm - N/A   Overcast
1:10 AM 32.0 °F - 32.0 °F 100% 30.32 in 1.5 mi Calm Calm - N/A   Overcast
1:17 AM 32.0 °F - 32.0 °F 100% 30.32 in 1.8 mi Calm Calm - N/A   Overcast
1:53 AM 32.0 °F - 30.9 °F 96% 30.32 in 1.2 mi Calm Calm - N/A   Overcast
2:30 AM 32.0 °F - 30.2 °F 93% 30.33 in 1.2 mi Calm Calm - N/A   Overcast
2:46 AM 30.2 °F - 30.2 °F 100% 30.33 in 0.8 mi Calm Calm - N/A   Overcast
2:53 AM 30.9 °F - 30.9 °F 100% 30.41 in 0.8 mi Calm Calm - N/A   Overcast
3:06 AM 30.2 °F - 30.2 °F 100% 30.33 in 1.2 mi Calm Calm - N/A   Overcast
3:16 AM 30.2 °F - 30.2 °F 100% 30.33 in 3.0 mi Calm Calm - N/A   Overcast
3:32 AM 30.2 °F - 30.2 °F 100% 30.33 in 4.0 mi Calm Calm - N/A   Overcast
3:39 AM 30.2 °F - 30.2 °F 100% 30.33 in 4.0 mi Calm Calm - N/A   Overcast
3:53 AM 30.9 °F - 30.9 °F 100% 30.41 in 4.0 mi Calm Calm - N/A   Overcast
4:03 AM 30.2 °F - 30.2 °F 100% 30.33 in 5.0 mi Calm Calm - N/A   Overcast
4:32 AM 30.2 °F - 30.2 °F 100% 30.33 in 4.0 mi Calm Calm - N/A   Overcast
4:53 AM 30.9 °F 27.5 °F 30.0 °F 96% 30.41 in 5.0 mi ENE 3.5 mph - N/A   Overcast
5:53 AM 30.9 °F - 30.0 °F 96% 30.41 in 5.0 mi Calm Calm - N/A   Overcast
6:40 AM 30.2 °F - 30.2 °F 100% 30.34 in 5.0 mi Calm Calm - N/A   Overcast
6:46 AM 30.2 °F - 30.2 °F 100% 30.34 in 5.0 mi Calm Calm - N/A   Overcast
6:53 AM 30.9 °F - 30.0 °F 96% 30.42 in 5.0 mi Calm Calm - N/A   Overcast
7:38 AM 30.2 °F - 30.2 °F 100% 30.34 in 2.5 mi Calm Calm - N/A   Overcast
7:53 AM 30.9 °F - 30.0 °F 96% 30.43 in 2.5 mi Calm Calm - N/A   Overcast
8:00 AM 30.2 °F - 30.2 °F 100% 30.35 in 3.0 mi Calm Calm - N/A   Overcast
8:29 AM 32.0 °F - 30.2 °F 93% 30.35 in 3.0 mi Calm Calm - N/A   Overcast
8:43 AM 32.0 °F - 30.2 °F 93% 30.36 in 3.0 mi Calm Calm - N/A   Overcast
8:53 AM 32.0 °F - 30.9 °F 96% 30.43 in 3.0 mi Calm Calm - N/A   Overcast
9:53 AM 33.1 °F 30.0 °F 30.9 °F 92% 30.43 in 10.0 mi SW 3.5 mph - N/A   Overcast
10:10 AM 33.8 °F - 30.2 °F 87% 30.37 in 10.0 mi Calm Calm - N/A   Mostly Cloudy
10:22 AM 33.8 °F - 30.2 °F 87% 30.36 in 10.0 mi Calm Calm - N/A   Scattered Clouds
10:53 AM 35.1 °F 30.1 °F 30.9 °F 85% 30.43 in 9.0 mi NNE 5.8 mph - N/A   Mostly Cloudy
11:07 AM 33.8 °F 29.6 °F 30.2 °F 87% 30.36 in 6.0 mi NNE 4.6 mph - N/A   Mostly Cloudy
11:24 AM 35.6 °F 30.7 °F 30.2 °F 81% 30.35 in 9.0 mi NE 5.8 mph - N/A   Scattered Clouds
11:37 AM 33.8 °F 28.6 °F 28.4 °F 81% 30.34 in 10.0 mi NNE 5.8 mph - N/A   Scattered Clouds
11:53 AM 33.1 °F 27.7 °F 28.9 °F 85% 30.41 in 8.0 mi ENE 5.8 mph - N/A   Mostly Cloudy
12:53 PM 32.0 °F 26.4 °F 28.9 °F 88% 30.38 in 5.0 mi ENE 5.8 mph - N/A   Overcast
1:20 PM 32.0 °F 26.4 °F 30.2 °F 93% 30.30 in 5.0 mi Variable 5.8 mph - N/A   Overcast
1:53 PM 33.1 °F 27.7 °F 30.0 °F 89% 30.36 in 7.0 mi NE 5.8 mph - N/A   Mostly Cloudy
2:07 PM 33.8 °F 28.6 °F 30.2 °F 87% 30.29 in 8.0 mi NNE 5.8 mph - N/A   Scattered Clouds
2:53 PM 35.1 °F 30.1 °F 30.0 °F 82% 30.35 in 10.0 mi NE 5.8 mph - N/A   Clear
3:53 PM 35.1 °F 29.3 °F 30.0 °F 82% 30.34 in 10.0 mi ENE 6.9 mph - N/A   Clear
4:53 PM 33.1 °F 27.7 °F 28.9 °F 85% 30.34 in 10.0 mi ENE 5.8 mph - N/A   Clear
5:53 PM 30.0 °F 25.2 °F 26.1 °F 85% 30.33 in 10.0 mi ENE 4.6 mph - N/A   Clear
6:53 PM 28.0 °F 21.7 °F 21.9 °F 78% 30.31 in 10.0 mi ENE 5.8 mph - N/A   Clear
7:53 PM 26.1 °F 18.4 °F 21.9 °F 84% 30.30 in 10.0 mi ENE 6.9 mph - N/A   Clear
8:53 PM 25.0 °F 18.1 °F 21.0 °F 85% 30.30 in 10.0 mi ENE 5.8 mph - N/A   Clear
9:53 PM 24.1 °F 18.2 °F 21.0 °F 88% 30.28 in 10.0 mi NE 4.6 mph - N/A   Clear
10:53 PM 23.0 °F 18.4 °F 19.9 °F 88% 30.27 in 10.0 mi NE 3.5 mph - N/A   Clear
11:53 PM 24.1 °F 17.0 °F 21.0 °F 88% 30.26 in 10.0 mi ENE 5.8 mph - N/A   Clear